Home > Weather > Barranquilla > Past weeks

Flag for Colombia Past Weather in Barranquilla, Colombia — Yesterday and Last 2 Weeks

Now
77 °F

Passing clouds.


Feels Like: 78 °F
Forecast: 78 / 88 °F
Wind: No wind

Location: Barranquilla / Ernestocortissoz

Current Time: Aug 27, 2016 at 12:00:33 AM

Latest Report: Aug 26, 2016 at 11:00 PM


Visibility: N/A

Pressure: 29.93 "Hg

Humidity: 94%

Dew Point: 75 °F

Location of BarranquillaLocation

Past Weather in Barranquilla — Graph

°F

Barranquilla Temperature Yesterday

Maximum temperature yesterday: 88 °F (at 3:00 PM)
Minimum temperature yesterday: 73 °F (at 10:00 AM)
Average temperature yesterday: 81 °F

High & Low Weather Summary for the Past Weeks

 TemperatureHumidityPressure
High95 °F (Aug 20, 12:00 PM)100% (Aug 12, 7:00 AM)29.93 "Hg (Aug 12, 7:00 AM)
Low73 °F (Aug 26, 10:00 AM)53% (Aug 22, 1:00 PM)29.71 "Hg (Aug 24, 5:00 PM)
Average85 °F79%29.81 "Hg
* Reported Aug 11 11:00 PM — Aug 26 11:00 PM, Barranquilla, Weather by CustomWeather, © 2016

Note: Actual official high and low records may vary slightly from our data, if they occured in-between our weather recording intervals... More about our weather records

Advertising

Barranquilla Weather History for the Previous 24 Hours

Scroll right to see more
 ConditionsComfort  
Time TempWeatherWind HumidityBarometerVisibility
11:00 PM
Fri, Aug 26
77 °FPassing clouds.No wind94%29.93 "HgN/A
10:00 PM77 °FPassing clouds.3 mph94%29.93 "HgN/A
9:00 PM77 °FPartly cloudy.7 mph94%29.91 "HgN/A
8:00 PM79 °FPartly cloudy.5 mph89%29.88 "HgN/A
7:00 PM79 °FPartly cloudy.3 mph89%29.87 "HgN/A
6:00 PM82 °FBroken clouds.5 mph70%29.84 "HgN/A
5:00 PM86 °FScattered showers. Scattered clouds.5 mph59%29.82 "HgN/A
4:00 PM88 °FScattered showers. Scattered clouds.8 mph59%29.80 "HgN/A
3:00 PM88 °FScattered showers. Scattered clouds.10 mph62%29.83 "HgN/A
2:00 PM84 °FScattered clouds.13 mph66%29.85 "HgN/A
1:00 PM81 °FBroken clouds.10 mph79%29.87 "HgN/A
12:00 PM79 °FPartly sunny.14 mph84%29.89 "HgN/A
11:00 AM77 °FBroken clouds.13 mph94%29.90 "HgN/A
10:00 AM73 °FThunderstorms. Broken clouds.12 mph100%29.92 "Hg0 mi
9:00 AM86 °FScattered showers. Scattered clouds.6 mph75%29.89 "HgN/A
8:00 AM86 °FScattered clouds.6 mph75%29.88 "HgN/A
7:00 AM82 °FScattered clouds.9 mph89%29.85 "HgN/A
6:00 AM81 °FFog.No wind89%29.83 "Hg4 mi
5:00 AM81 °FPassing clouds.9 mph74%29.82 "HgN/A
4:00 AM81 °FPassing clouds.No wind89%29.79 "HgN/A
3:00 AM81 °FPassing clouds.5 mph89%N/AN/A
2:00 AM81 °FPassing clouds.3 mph89%29.80 "HgN/A
1:00 AM82 °FPassing clouds.8 mph84%29.81 "HgN/A
12:00 AM82 °FPassing clouds.7 mph89%29.82 "HgN/A
Weather by CustomWeather, © 2016

See weather overviewHow to use our weather pages